Date,TemperatureHighF,TemperatureAvgF,TemperatureLowF,DewpointHighF,DewpointAvgF,DewpointLowF,HumidityHigh,HumidityAvg,HumidityLow,PressureMaxIn,PressureMinIn,WindSpeedMaxMPH,WindSpeedAvgMPH,GustSpeedMaxMPH,PrecipitationSumIn
2013-4-1,83,70,61,66,60,55,97,72,44,30.15,30.05,11,3,11,0.00
2013-4-2,78,64,53,57,51,42,94,65,35,30.30,30.14,11,2,11,0.00
2013-4-3,75,61,52,63,57,52,99,88,61,30.31,30.21,14,3,14,0.11
2013-4-4,77,66,58,71,64,58,99,94,78,30.29,30.00,14,4,14,0.25
2013-4-5,59,56,50,59,54,49,99,94,82,30.22,30.03,11,3,11,0.50
2013-4-6,71,58,45,56,50,44,99,80,41,30.38,30.21,12,3,12,0.00
2013-4-7,80,66,55,64,58,54,99,80,43,30.39,30.30,12,2,12,0.00
2013-4-8,83,68,55,66,60,54,99,79,43,30.35,30.26,10,2,10,0.00
2013-4-9,84,71,60,70,65,60,99,83,55,30.38,30.27,11,2,11,0.00
2013-4-10,67,65,64,64,64,62,96,94,90,30.33,30.28,3,0,3,0.00
2013-4-11,85,74,68,74,70,67,99,89,70,30.18,29.99,12,3,12,0.00
2013-4-12,91,77,71,74,71,67,97,84,47,30.05,29.91,15,3,15,0.07
2013-4-13,82,67,57,70,54,45,92,65,28,30.18,30.05,8,2,9,0.00
2013-4-14,72,64,57,67,61,56,98,93,72,30.23,30.03,13,2,13,0.52
2013-4-15,77,64,61,66,62,61,98,93,67,30.31,30.03,8,1,8,0.01
2013-4-16,81,70,61,70,65,60,99,86,64,30.39,30.29,9,2,9,0.00
2013-4-17,80,69,61,72,65,61,99,87,61,30.38,30.28,10,2,10,0.00
2013-4-18,83,72,64,74,68,63,99,88,64,30.29,30.17,14,2,14,0.00
2013-4-19,89,76,63,74,71,62,99,86,53,30.19,30.02,14,3,14,0.37
2013-4-20,63,59,50,62,56,50,99,89,71,30.39,30.17,8,2,8,0.43
2013-4-21,72,60,48,60,55,48,99,85,63,30.42,30.34,23,6,23,0.00
2013-4-22,70,62,55,59,56,51,97,80,54,30.37,30.28,21,7,21,0.08
2013-4-23,71,60,52,59,55,52,98,85,63,30.37,30.28,11,3,11,0.00
2013-4-24,82,64,51,66,60,51,99,88,55,30.34,30.26,5,1,5,0.00
2013-4-25,87,73,63,69,65,61,96,77,48,30.38,30.29,8,2,8,0.00
2013-4-26,77,68,60,65,60,55,95,75,56,30.51,30.35,15,4,15,0.00
2013-4-27,80,69,60,64,61,54,98,78,42,30.46,30.36,12,3,12,0.00
2013-4-28,82,72,61,69,64,61,99,80,57,30.36,30.17,12,3,12,0.00
2013-4-29,72,68,64,68,66,63,99,93,84,30.21,30.11,8,0,8,0.70
2013-4-30,83,69,62,71,65,62,99,87,56,30.24,30.12,10,2,10,0.01